Wind_Speed
6 6 7 6 5 5 5 5 6 7 6 6 6 5 5 4 4 5 6 6 6 5 5 4 4 3 4 4 4 4 4 4 5 5 5 5 6 7 7 7 6 6 6
5 6 6 5 4 4 4 3 4 5 5 6 6 5 5 5 5 5 5 5 5 5 5 3 4 4 4 5 5 5 5 5 5 5 6 6 7 8 7 7 7 7 7
4 5 5 5 4 4 3 3 4 4 4 5 5 5 4 5 5 4 4 4 4 4 5 4 5 6 6 5 5 5 5 6 6 7 7 7 7 7 8 8 8 8 8
4 4 3 3 3 3 2 3 3 3 4 5 5 5 4 4 4 4 4 4 4 4 5 6 7 7 7 6 6 6 6 6 7 8 8 8 8 8 8 8 9 9 9
3 3 2 2 1 2 2 2 3 3 3 4 5 4 4 4 5 5 5 5 5 6 7 7 8 7 7 7 7 7 8 8 8 8 8 9 8 9 9 9 10 10 10
4 3 2 2 1 1 1 2 3 3 3 4 5 5 5 5 6 6 6 6 6 7 7 7 7 7 7 8 8 8 8 8 9 9 9 9 9 10 10 11 11 12 12
3 3 2 1 0 1 1 1 2 3 4 4 5 5 5 5 6 6 6 7 6 7 7 7 7 7 8 8 8 9 9 9 9 9 10 10 10 10 11 12 12 12 13
1 1 1 1 2 2 2 3 3 3 3 3 3 4 5 5 5 6 6 7 7 8 7 7 8 8 8 9 9 9 9 10 10 10 11 11 11 11 11 12 12 12 12
1 2 2 2 3 3 3 3 4 4 4 4 4 4 5 5 5 6 6 7 7 7 7 8 8 8 8 9 9 9 10 10 10 10 11 11 12 12 12 13 13 13 13
2 3 3 3 4 4 4 4 4 4 5 5 6 6 6 6 6 8 8 7 7 7 8 8 9 9 9 9 9 10 10 10 10 11 12 12 12 12 13 13 14 14 14
4 5 5 5 5 5 5 5 6 6 6 7 7 7 7 8 8 8 8 8 8 8 8 9 9 9 9 9 9 10 11 11 11 12 12 12 13 13 13 14 14 15 16
6 6 6 6 6 6 6 6 6 6 7 7 8 8 9 9 9 9 9 9 9 9 10 10 10 10 9 9 9 10 11 12 12 13 13 13 14 14 15 15 16 17 17
7 7 7 7 7 7 7 7 7 8 8 9 9 10 10 10 11 11 11 11 11 11 11 11 11 11 11 12 12 12 13 14 14 15 15 16 16 16 17 17 18 18 19
7 8 8 8 7 8 8 8 9 9 10 10 10 10 11 11 12 12 12 12 12 12 12 12 12 12 13 14 15 15 15 16 16 16 16 17 18 18 18 19 19 19 19
9 9 9 8 8 8 9 9 10 10 10 10 11 12 12 12 12 12 13 13 13 13 13 14 14 14 15 15 15 15 16 16 16 17 18 18 19 19 19 20 20 20 19
10 10 10 9 9 10 10 11 11 11 11 11 12 13 14 14 14 14 15 15 15 15 14 14 16 16 16 16 16 16 17 17 17 18 18 19 19 20 19 20 20 20 20
12 12 12 11 11 11 11 12 12 12 13 13 13 14 15 15 16 16 16 17 17 17 17 16 17 18 18 18 19 18 18 19 19 19 19 19 20 20 20 20 20 21 22
14 14 14 13 13 14 13 13 14 14 14 15 15 16 17 18 18 18 18 19 19 20 20 19 19 19 20 20 20 20 19 20 20 20 20 21 20 21 21 21 22 22 23
16 16 16 16 16 16 16 16 16 16 16 17 18 18 19 19 20 20 21 21 21 21 21 22 21 21 22 22 21 21 21 21 22 22 22 21 21 22 23 23 23 23 23
18 18 18 18 18 18 18 18 18 18 19 19 20 20 20 21 22 22 23 23 23 23 23 23 23 23 23 23 23 23 23 23 23 23 23 23 23 23 24 24 24 24 23
19 19 19 20 20 20 20 20 21 21 21 22 22 22 23 23 23 24 24 24 24 25 25 24 24 24 24 24 24 24 24 25 25 25 25 25 25 25 25 25 25 25 24
21 21 22 22 22 22 22 22 23 23 24 24 24 24 25 25 25 25 25 25 25 25 26 26 26 26 26 26 26 26 26 26 26 26 26 26 27 27 27 27 27 26 25
25 24 24 24 24 23 24 24 25 26 26 26 26 26 26 26 26 26 26 26 26 26 26 26 26 27 26 27 27 28 28 28 28 29 29 29 29 29 28 27 27 27 27
26 25 25 25 26 26 26 27 28 28 29 28 28 28 27 27 27 28 28 28 28 28 28 28 28 28 29 29 29 29 30 30 30 31 31 31 30 30 29 29 28 28 28
27 27 27 27 28 28 28 29 30 30 30 30 29 28 28 29 29 30 29 29 29 30 30 30 30 30 31 31 31 31 32 33 32 31 32 32 32 32 31 30 30 31 31
28 28 28 29 29 29 30 31 31 31 31 31 30 30 30 30 31 31 31 31 31 32 32 32 32 33 32 32 33 34 33 33 33 32 33 33 33 34 33 33 33 32 32
Wind_Direction
159 165 155 151 154 154 160 156 156 166 175 175 179 186 194 208 221 213 221 223 222 226 229 234 229 233 252 267 281 284 286 288 296 301 302 300 298 298 295 291 293 289 287
157 162 159 163 166 164 165 160 159 164 175 184 191 197 207 216 216 216 222 223 227 231 229 241 248 246 257 268 275 278 282 284 288 293 295 295 296 299 295 289 292 292 288
142 147 153 164 163 166 173 176 178 179 177 186 200 203 210 218 218 225 226 220 223 235 237 255 257 255 260 266 272 275 285 284 284 287 286 291 292 294 296 291 289 289 293
126 137 149 156 170 168 177 185 189 189 191 197 208 220 232 230 244 245 246 239 239 252 256 260 263 261 265 268 275 277 277 280 280 282 282 284 286 289 291 295 293 289 291
101 108 132 147 162 173 179 193 206 210 215 208 209 225 237 256 258 252 254 251 253 267 268 265 266 270 269 269 274 275 274 278 282 287 288 286 284 285 287 292 293 291 293
83 85 98 115 146 194 212 218 224 225 232 236 233 233 238 247 256 259 259 263 273 272 270 269 271 271 267 269 273 277 278 282 285 287 289 289 285 285 287 289 291 291 291
81 74 73 68 54 299 269 246 252 248 254 251 256 248 239 246 253 259 264 273 276 273 273 270 271 274 273 272 274 279 281 285 284 287 291 292 289 288 288 289 291 292 291
72 41 18 355 329 314 295 282 284 280 279 281 285 286 274 266 265 261 269 274 277 276 277 280 279 279 279 275 277 282 284 283 281 283 287 291 293 291 289 291 293 294 292
13 329 318 311 312 313 304 301 303 298 294 290 291 298 296 283 273 276 284 282 277 282 289 292 289 286 283 278 278 284 288 286 285 286 287 288 290 289 286 287 288 289 291
329 328 323 313 308 312 305 306 306 302 302 297 297 299 295 294 284 283 288 286 282 284 288 292 289 286 286 285 282 284 287 292 294 295 293 290 290 291 290 289 288 290 291
328 328 322 310 305 303 297 298 301 298 300 298 295 296 296 294 291 286 287 286 283 286 290 291 291 289 287 286 289 288 288 289 291 294 291 289 292 293 292 292 292 293 294
331 323 318 310 302 299 296 294 298 295 293 291 291 297 298 298 297 293 290 290 288 288 287 286 291 295 291 292 291 290 291 291 291 292 290 289 290 291 291 291 293 295 295
331 322 314 310 305 303 300 297 294 292 292 294 295 297 300 299 295 294 291 289 288 289 290 289 291 294 295 294 291 289 291 291 291 291 291 291 290 291 290 290 291 292 293
324 324 317 309 307 303 298 294 294 296 298 296 295 295 297 298 297 294 294 293 291 288 287 285 284 287 289 290 293 291 291 292 292 290 289 288 289 288 289 290 290 292 292
317 315 313 310 306 303 302 300 295 293 293 292 291 292 293 293 293 292 292 290 290 289 288 287 287 289 292 292 292 292 292 291 291 291 289 289 289 288 288 289 291 292 292
308 307 306 304 303 300 299 298 295 295 294 292 291 291 290 289 289 290 288 289 289 291 290 290 291 293 296 296 292 291 293 294 293 291 289 289 289 288 289 290 292 292 291
302 301 303 304 302 298 297 296 294 298 299 298 296 294 293 292 292 292 292 291 292 293 292 291 291 291 292 291 291 291 292 292 292 292 292 292 290 291 291 291 291 290 291
299 299 299 299 298 297 298 298 296 297 296 295 295 294 290 290 289 290 293 294 293 292 291 290 289 288 289 290 289 288 289 290 291 291 291 289 289 291 292 293 292 291 290
295 295 296 294 293 293 294 297 297 297 295 294 294 293 290 288 289 290 291 290 291 290 289 289 288 287 287 286 285 286 288 288 289 291 291 292 292 292 292 292 292 292 292
290 290 291 290 290 289 292 294 294 295 296 296 296 296 293 291 290 289 288 289 290 291 290 289 288 287 286 284 284 284 286 287 287 288 289 290 290 291 293 293 292 291 291
287 286 288 289 288 288 290 292 291 292 292 294 294 295 294 293 291 290 290 289 289 290 290 289 289 288 287 284 282 282 283 284 286 286 287 288 288 290 291 291 290 289 289
285 285 286 288 289 289 291 291 291 291 291 291 290 291 291 291 291 290 290 289 288 288 289 288 289 289 288 284 283 283 283 284 286 286 286 288 289 289 290 289 288 287 288
284 284 284 285 287 289 290 289 289 290 290 290 289 288 289 289 287 288 288 288 288 289 288 288 288 290 289 287 286 285 285 285 285 286 287 287 288 289 288 287 286 286 286
282 284 285 286 287 288 288 287 288 289 289 288 289 288 287 288 288 287 287 287 288 289 287 287 288 288 287 286 286 285 285 285 286 286 288 288 287 287 287 285 285 286 286
280 282 284 286 286 286 287 287 286 287 289 290 290 291 290 287 287 286 286 287 287 288 288 287 288 288 288 286 285 286 286 285 285 286 286 287 286 285 285 284 284 285 284
280 280 282 284 285 285 285 286 287 288 289 289 289 289 289 288 287 284 283 285 286 287 287 286 287 287 287 287 286 286 286 284 284 284 286 286 286 285 286 285 284 282 282
Height
5877 5879 5880 5881 5882 5882 5884 5885 5886 5887 5888 5889 5891 5892 5893 5894 5895 5896 5897 5898 5898 5899 5900 5901 5902 5902 5903 5903 5904 5904 5905 5905 5905 5905 5905 5905 5905 5905 5905 5905 5904 5904 5904
5879 5880 5882 5883 5884 5885 5885 5886 5887 5888 5889 5890 5891 5892 5893 5894 5894 5895 5896 5897 5898 5899 5900 5901 5901 5902 5902 5903 5903 5903 5904 5904 5904 5904 5904 5904 5904 5904 5903 5903 5903 5903 5903
5880 5882 5883 5884 5885 5886 5887 5887 5888 5889 5890 5891 5892 5893 5893 5894 5895 5896 5897 5897 5898 5898 5899 5900 5900 5901 5901 5902 5902 5902 5902 5902 5903 5903 5902 5902 5902 5902 5901 5901 5901 5901 5901
5882 5883 5884 5885 5886 5887 5888 5888 5889 5890 5890 5891 5892 5893 5893 5894 5895 5896 5896 5897 5897 5898 5899 5899 5899 5899 5900 5900 5901 5901 5901 5901 5901 5901 5900 5900 5900 5900 5900 5899 5899 5899 5899
5883 5884 5885 5886 5887 5887 5888 5888 5889 5890 5891 5892 5892 5892 5893 5893 5894 5895 5895 5896 5897 5897 5897 5898 5898 5898 5898 5899 5899 5899 5899 5899 5899 5899 5898 5898 5898 5898 5897 5897 5897 5897 5896
5885 5886 5886 5887 5887 5888 5888 5889 5889 5890 5890 5891 5892 5892 5892 5893 5893 5894 5894 5895 5895 5896 5896 5896 5896 5896 5896 5896 5897 5897 5897 5897 5897 5896 5896 5896 5896 5895 5895 5895 5894 5894 5894
5886 5887 5887 5888 5888 5888 5889 5889 5890 5890 5890 5890 5891 5891 5891 5892 5892 5893 5893 5893 5894 5894 5894 5894 5894 5894 5894 5894 5895 5895 5895 5895 5894 5894 5894 5894 5893 5893 5893 5892 5892 5891 5891
5888 5888 5888 5889 5889 5889 5889 5890 5890 5890 5890 5890 5891 5891 5890 5891 5891 5891 5892 5892 5892 5892 5892 5892 5892 5893 5893 5893 5892 5892 5892 5892 5892 5892 5891 5891 5891 5890 5890 5890 5889 5888 5888
5889 5889 5889 5889 5889 5889 5889 5890 5890 5890 5890 5890 5890 5890 5890 5890 5890 5891 5890 5890 5891 5891 5891 5891 5891 5891 5890 5890 5890 5890 5890 5889 5889 5889 5888 5888 5888 5887 5887 5886 5886 5885 5884
5889 5889 5889 5889 5889 5889 5889 5889 5890 5889 5889 5889 5889 5889 5890 5889 5889 5889 5889 5889 5889 5889 5889 5889 5888 5888 5888 5887 5887 5887 5886 5887 5886 5886 5886 5885 5885 5884 5884 5883 5882 5882 5881
5889 5889 5889 5889 5889 5889 5889 5889 5889 5889 5889 5888 5888 5888 5888 5888 5888 5888 5888 5888 5888 5887 5887 5886 5886 5885 5885 5885 5885 5884 5884 5883 5883 5883 5882 5882 5881 5881 5880 5879 5879 5878 5877
5889 5889 5888 5888 5888 5888 5888 5888 5888 5888 5888 5887 5887 5887 5887 5887 5886 5886 5886 5885 5885 5885 5885 5884 5883 5883 5882 5882 5881 5881 5881 5880 5880 5880 5879 5878 5878 5877 5876 5876 5875 5874 5873
5889 5888 5888 5887 5887 5887 5887 5887 5886 5886 5886 5886 5885 5885 5885 5885 5884 5884 5884 5883 5883 5883 5882 5882 5881 5880 5879 5879 5877 5877 5878 5877 5877 5876 5875 5874 5874 5873 5872 5871 5870 5869 5868
5888 5888 5887 5886 5886 5885 5885 5885 5885 5884 5884 5884 5884 5883 5883 5883 5882 5882 5881 5881 5880 5880 5879 5879 5878 5877 5877 5876 5874 5874 5874 5873 5873 5872 5871 5870 5869 5868 5867 5866 5865 5864 5863
5887 5886 5886 5885 5884 5884 5884 5883 5883 5883 5882 5882 5881 5881 5881 5880 5880 5879 5878 5878 5878 5877 5876 5875 5874 5874 5873 5872 5871 5870 5869 5869 5868 5867 5866 5865 5864 5863 5862 5861 5860 5859 5858
5886 5885 5884 5883 5883 5882 5882 5881 5881 5880 5879 5879 5878 5878 5877 5877 5876 5876 5875 5874 5874 5873 5872 5871 5870 5869 5869 5868 5867 5866 5865 5864 5863 5862 5861 5861 5860 5858 5857 5856 5855 5854 5853
5884 5883 5882 5881 5880 5880 5879 5879 5878 5877 5877 5876 5875 5875 5874 5873 5872 5871 5871 5870 5870 5869 5868 5867 5866 5865 5864 5863 5862 5861 5860 5859 5859 5858 5857 5855 5854 5853 5852 5851 5849 5848 5847
5881 5880 5879 5879 5878 5877 5876 5876 5875 5874 5873 5873 5872 5871 5870 5869 5868 5867 5866 5866 5865 5864 5863 5862 5861 5860 5859 5858 5857 5856 5855 5854 5853 5852 5851 5850 5849 5847 5846 5845 5843 5842 5841
5878 5877 5876 5876 5875 5874 5873 5872 5871 5870 5870 5869 5867 5866 5865 5864 5863 5862 5861 5860 5859 5858 5857 5856 5856 5854 5853 5852 5851 5850 5849 5848 5847 5846 5845 5844 5843 5842 5840 5839 5837 5836 5834
5874 5873 5873 5872 5871 5870 5869 5868 5867 5866 5865 5864 5863 5861 5860 5859 5858 5857 5856 5855 5854 5852 5851 5850 5849 5848 5847 5845 5844 5844 5843 5842 5841 5840 5839 5838 5837 5835 5834 5832 5830 5829 5827
5869 5869 5868 5867 5867 5866 5865 5864 5863 5862 5861 5859 5858 5856 5855 5853 5852 5851 5850 5848 5847 5846 5844 5843 5842 5841 5839 5838 5837 5837 5836 5835 5834 5833 5832 5831 5830 5828 5827 5825 5823 5822 5820
5864 5864 5863 5862 5861 5860 5860 5859 5857 5856 5855 5853 5852 5850 5849 5847 5846 5844 5843 5841 5840 5839 5837 5836 5834 5833 5832 5831 5830 5829 5828 5827 5827 5826 5824 5823 5822 5821 5819 5818 5816 5814 5813
5859 5858 5858 5857 5856 5855 5854 5852 5851 5849 5848 5847 5845 5843 5842 5840 5839 5837 5836 5834 5833 5831 5830 5829 5827 5826 5824 5823 5822 5821 5820 5819 5818 5817 5816 5815 5814 5812 5811 5809 5808 5807 5805
5853 5852 5851 5851 5850 5848 5847 5845 5844 5842 5841 5839 5837 5836 5834 5833 5831 5830 5828 5827 5825 5824 5822 5820 5819 5818 5816 5815 5814 5813 5811 5810 5809 5808 5806 5806 5805 5803 5802 5801 5800 5798 5797
5846 5845 5844 5843 5842 5841 5839 5838 5836 5835 5833 5832 5830 5828 5826 5824 5823 5821 5820 5818 5817 5816 5813 5812 5811 5809 5807 5805 5804 5803 5802 5800 5800 5799 5797 5796 5795 5794 5793 5792 5791 5790 5788
5838 5837 5836 5835 5834 5833 5831 5830 5828 5827 5825 5823 5821 5819 5817 5815 5814 5812 5811 5810 5808 5807 5805 5803 5802 5800 5798 5796 5794 5793 5792 5790 5789 5789 5788 5786 5785 5783 5783 5783 5781 5780 5779